[[{"header":{"parameterUnit":"m.s-1","parameterCategory":1,"la1":30.2991,"la2":30.254,"lo1":-89.0895,"lo2":-89.0444,"dy":0.0017,"dx":0.0017,"nx":28,"ny":28,"refTime":"2025-11-11T09:00:00:Z","depth":0,"parameterNumber":2,"parameterNumberName":"U-component_of_WINDS"},"data":[0,0,0,0,0,0,0,0,0,0,0,0,0,0,0,0,0,0,0,0,0,0,0,0,0,0,0,0,0,0,0,0,0,0,0,0,0,0,0,0,0,0,0,0,0,0,0,0,0,0,0,0,0,0,0,0,0,0,-1.5316,-1.5316,0,-1.5295,-1.5295,-1.5295,-1.5212,-1.521,-1.5208,-1.5206,-1.5187,-1.5189,-1.519,0,0,0,0,0,0,0,0,0,0,0,0,0,-1.5285,-1.5286,-1.5316,-1.5316,-1.5316,-1.5295,-1.5295,-1.5295,-1.5212,-1.521,-1.5207,-1.5205,-1.5187,-1.5189,-1.519,0,0,0,0,0,0,0,0,0,0,0,0,0,-1.5285,-1.5286,-1.5316,-1.5272,-1.5267,-1.5296,-1.5295,-1.5295,-1.5212,-1.5209,-1.5207,-1.5204,-1.5187,-1.5188,-1.519,-1.5261,0,0,-1.5196,-1.5197,0,0,0,0,0,0,0,0,-1.5285,-1.5286,-1.5278,-1.5275,-1.527,-1.5253,-1.5277,-1.5283,-1.5213,-1.5233,-1.5206,-1.5202,-1.5212,-1.5212,-1.5214,-1.526,-1.5259,-1.5197,-1.5198,-1.5199,-1.5199,0,0,0,0,0,0,0,-1.5285,-1.5287,-1.5308,-1.5278,-1.5273,-1.5253,-1.525,-1.5278,-1.5239,-1.5231,-1.5225,-1.5224,-1.5209,-1.5212,-1.5213,-1.5259,-1.5197,-1.5198,-1.52,-1.52,-1.5359,-1.5362,0,0,0,0,0,0,-1.5291,-1.5287,-1.5309,-1.5307,-1.5271,-1.5256,-1.5252,-1.5262,-1.5239,-1.5232,-1.5226,-1.522,-1.521,-1.5211,-1.5212,-1.5291,-1.5199,-1.52,-1.5202,-1.5356,-1.5359,-1.5363,0,0,0,0,0,0,-1.5291,-1.5294,-1.5309,-1.5296,-1.5296,-1.526,-1.5271,-1.5263,-1.5266,-1.5235,-1.5228,-1.5237,-1.5208,-1.5209,-1.5248,-1.529,-1.5201,-1.5203,-1.5352,-1.5357,-1.5361,-1.5452,0,0,0,0,0,0,-1.529,-1.5294,-1.5321,-1.5297,-1.5297,-1.5346,-1.5273,-1.5264,-1.5269,-1.5261,-1.5243,-1.5237,-1.5206,-1.5246,-1.525,-1.5291,-1.5205,-1.5348,-1.5354,-1.5359,-1.5445,-1.5459,-1.5471,0,0,0,0,0,-1.529,-1.5348,-1.5322,-1.5325,-1.5329,-1.5349,-1.5349,-1.5311,-1.5273,-1.5299,-1.5278,-1.5238,-1.5284,-1.5251,-1.5255,-1.5297,-1.5345,-1.5352,-1.5359,-1.5439,-1.5456,-1.5471,0,0,0,0,0,0,-1.5379,-1.5344,-1.5315,-1.5368,-1.5362,-1.5335,-1.5367,-1.5331,-1.5336,-1.5329,-1.5282,-1.5279,-1.5324,-1.5314,-1.5277,-1.5362,-1.5308,-1.5316,-1.5367,-1.5383,-1.5396,-1.5398,-1.5206,0,0,0,0,0,-1.5405,-1.5423,-1.5392,-1.5441,-1.544,-1.5404,-1.5411,-1.5382,-1.5375,-1.5372,-1.5354,-1.5349,-1.5362,-1.5372,-1.5383,-1.5443,-1.5437,-1.5473,-1.5486,-1.5497,-1.5505,-1.5534,-1.555,-1.5385,-1.5385,-1.5385,0,0,-1.5459,-1.5442,-1.5457,-1.5459,-1.5451,-1.5471,-1.5402,-1.5427,-1.5442,-1.5376,-1.5411,-1.5398,-1.5389,-1.5439,-1.546,-1.5432,-1.5549,-1.5506,-1.5515,-1.5516,-1.5543,-1.5558,-1.5572,-1.539,-1.5389,-1.5388,0,0,-1.5567,-1.5556,-1.5595,-1.5588,-1.5576,-1.5551,-1.5561,-1.5539,-1.5527,-1.5561,-1.5512,-1.5528,-1.5553,-1.5548,-1.5548,-1.5652,-1.5614,-1.5657,-1.5725,-1.5754,-1.5767,-1.5778,-1.5814,-1.5828,-1.5664,-1.5665,-1.5665,0,-1.5636,-1.5664,-1.562,-1.5648,-1.565,-1.5589,-1.5628,-1.5624,-1.5616,-1.5619,-1.5588,-1.5615,-1.5605,-1.5651,-1.5677,-1.5679,-1.5688,-1.5659,-1.5768,-1.5779,-1.5789,-1.5823,-1.5837,-1.567,-1.5669,-1.5669,-1.5668,0,-1.5748,-1.5768,-1.5802,-1.5794,-1.58,-1.5833,-1.5795,-1.5806,-1.5776,-1.5755,-1.579,-1.5775,-1.578,-1.5789,-1.5761,-1.5832,-1.5814,-1.5776,-1.5721,-1.5811,-1.5842,-1.5855,-1.5677,-1.5675,-1.5674,-1.5672,0,0,-1.5915,-1.5881,-1.5894,-1.5888,-1.587,-1.5884,-1.5914,-1.5918,-1.5928,-1.5925,-1.5949,-1.5969,-1.5933,-1.5934,-1.5904,-1.593,-1.6012,-1.5888,-1.5887,-1.5911,-1.6087,-1.6116,-1.6132,-1.5986,-1.5988,-1.599,-1.6088,0,-1.6017,-1.6066,-1.6026,-1.6082,-1.61,-1.6041,-1.6067,-1.6058,-1.6039,-1.6051,-1.6029,-1.6044,-1.5996,-1.5996,-1.6018,-1.5997,-1.6046,-1.5989,-1.6008,-1.6009,-1.6012,-1.6148,-1.6179,-1.6272,-1.61,-1.6102,-1.6103,0,-1.6144,-1.6144,-1.6201,-1.6176,-1.6182,-1.6206,-1.6206,-1.6218,-1.6206,-1.619,-1.619,-1.6153,-1.618,-1.6125,-1.6162,-1.6124,-1.6129,-1.6119,-1.6122,-1.6122,-1.6062,-1.6152,-1.63,-1.6314,-1.6122,-1.6121,-1.6119,0,-1.6259,-1.6273,-1.6308,-1.6306,-1.6279,-1.6296,-1.6286,-1.6271,-1.6276,-1.6275,-1.6277,-1.6281,-1.6283,-1.6287,-1.6251,-1.6214,-1.6292,-1.6234,-1.6279,-1.628,-1.6299,-1.6298,-1.645,-1.6302,-1.6302,-1.6302,-1.6302,0,-1.6377,-1.6415,-1.6359,-1.6381,-1.6421,-1.6375,-1.6416,-1.6399,-1.6386,-1.6404,-1.6354,-1.6371,-1.6323,-1.6336,-1.6308,-1.6342,-1.6344,-1.6331,-1.6323,-1.6336,-1.6337,-1.6338,-1.6331,-1.6306,-1.6305,-1.6304,-1.6303,0,-1.6513,-1.6477,-1.6512,-1.6482,-1.6475,-1.6505,-1.648,-1.6499,-1.6475,-1.6498,-1.65,-1.6463,-1.6475,-1.644,-1.6447,-1.6428,-1.6477,-1.6459,-1.6481,-1.6475,-1.6522,-1.6518,-1.668,-1.6698,-1.6539,-1.6541,-1.6542,0,-1.6591,-1.6618,-1.659,-1.6597,-1.6589,-1.6602,-1.6605,-1.6561,-1.6566,-1.6554,-1.6574,-1.6582,-1.6585,-1.6607,-1.6581,-1.6585,-1.6567,-1.6623,-1.6567,-1.6578,-1.6567,-1.6565,-1.6567,-1.6635,-1.6637,-1.6639,-1.664,0,-1.6733,-1.6714,-1.672,-1.672,-1.6725,-1.6723,-1.6718,-1.6727,-1.6679,-1.6688,-1.6698,-1.6701,-1.6707,-1.6714,-1.6713,-1.6702,-1.6663,-1.6657,-1.6668,-1.6681,-1.6692,-1.6685,-1.6512,-1.6654,-1.6653,-1.6652,-1.6651,-1.665,-1.6842,-1.6862,-1.6845,-1.6853,-1.6844,-1.684,-1.6855,-1.6832,-1.684,-1.684,-1.6814,-1.683,-1.6815,-1.6809,-1.6802,-1.6813,-1.6787,-1.6803,-1.6807,-1.6811,-1.6818,-1.669,-1.6813,-1.6812,-1.6812,-1.6812,-1.6811,0,-1.6981,-1.6966,-1.6974,-1.6967,-1.6974,-1.6934,-1.6926,-1.6934,-1.6948,-1.6938,-1.6941,-1.6953,-1.696,-1.6933,-1.6936,-1.695,-1.6932,-1.6952,-1.6951,-1.6949,-1.6842,-1.6832,-1.6967,-1.6967,-1.6967,-1.6967,-1.6967,-1.6967,-1.7054,-1.7086,-1.7064,-1.7091,-1.7076,-1.709,-1.7088,-1.7083,-1.7074,-1.7089,-1.7094,-1.7076,-1.7059,-1.7059,-1.7063,-1.7055,-1.7058,-1.7085,-1.7071,-1.6972,-1.6957,-1.6942,-1.6933,-1.7086,-1.7086,-1.7176,-1.7177,-1.7178]},{"header":{"parameterUnit":"m.s-1","parameterCategory":1,"la1":30.2991,"la2":30.254,"lo1":-89.0895,"lo2":-89.0444,"dy":0.0017,"dx":0.0017,"nx":28,"ny":28,"refTime":"2025-11-11T09:00:00:Z","depth":0,"parameterNumber":3,"parameterNumberName":"V-component_of_WINDS"},"data":[0,0,0,0,0,0,0,0,0,0,0,0,0,0,0,0,0,0,0,0,0,0,0,0,0,0,0,0,0,0,0,0,0,0,0,0,0,0,0,0,0,0,0,0,0,0,0,0,0,0,0,0,0,0,0,0,0,0,-7.7211,-7.7212,0,-7.7335,-7.7336,-7.7338,-7.7169,-7.7163,-7.7157,-7.7151,-7.7272,-7.728,-7.7289,0,0,0,0,0,0,0,0,0,0,0,0,0,-7.6823,-7.6831,-7.7211,-7.7213,-7.7214,-7.7335,-7.7336,-7.7338,-7.717,-7.7163,-7.7155,-7.7149,-7.7269,-7.7279,-7.729,0,0,0,0,0,0,0,0,0,0,0,0,0,-7.6973,-7.6833,-7.7211,-7.7145,-7.714,-7.7334,-7.7336,-7.7338,-7.7172,-7.7163,-7.7154,-7.7145,-7.7265,-7.7278,-7.7291,-7.7554,0,0,-7.7332,-7.7337,0,0,0,0,0,0,0,0,-7.6965,-7.6988,-7.7153,-7.715,-7.7145,-7.7227,-7.7243,-7.741,-7.7174,-7.716,-7.7151,-7.7141,-7.7264,-7.7277,-7.7319,-7.7559,-7.7564,-7.7333,-7.7341,-7.7347,-7.735,0,0,0,0,0,0,0,-7.6955,-7.6981,-7.726,-7.7156,-7.7151,-7.7107,-7.7119,-7.7274,-7.7261,-7.716,-7.7148,-7.7166,-7.726,-7.7307,-7.7321,-7.7566,-7.7333,-7.7344,-7.7352,-7.7358,-7.8026,-7.8035,0,0,0,0,0,0,-7.6953,-7.6974,-7.7256,-7.7263,-7.7031,-7.7122,-7.7134,-7.721,-7.7259,-7.7257,-7.7173,-7.7157,-7.7289,-7.7306,-7.7325,-7.7634,-7.7347,-7.7359,-7.7367,-7.8016,-7.8028,-7.8039,0,0,0,0,0,0,-7.6945,-7.698,-7.7251,-7.7116,-7.7147,-7.7138,-7.7224,-7.7217,-7.7264,-7.7268,-7.7264,-7.7224,-7.7283,-7.7306,-7.7498,-7.7636,-7.7365,-7.7377,-7.8005,-7.802,-7.8033,-7.8256,0,0,0,0,0,0,-7.6935,-7.6978,-7.7079,-7.7119,-7.7155,-7.7425,-7.7233,-7.7226,-7.7288,-7.7269,-7.7315,-7.7314,-7.7277,-7.7479,-7.7511,-7.7649,-7.7387,-7.7992,-7.8011,-7.8029,-7.8236,-7.8276,-7.831,0,0,0,0,0,-7.6922,-7.7136,-7.7085,-7.712,-7.7281,-7.7433,-7.7453,-7.7408,-7.73,-7.74,-7.7403,-7.7313,-7.7616,-7.75,-7.7535,-7.7679,-7.7983,-7.8006,-7.8027,-7.8219,-7.8268,-7.831,0,0,0,0,0,0,-7.7109,-7.714,-7.7084,-7.7318,-7.7375,-7.7404,-7.7529,-7.7461,-7.7548,-7.7526,-7.7464,-7.7476,-7.7681,-7.7699,-7.757,-7.7935,-7.7781,-7.7812,-7.7915,-7.7962,-7.7999,-7.7989,-7.7398,0,0,0,0,0,-7.7179,-7.7302,-7.732,-7.7524,-7.7556,-7.7539,-7.7603,-7.7564,-7.7619,-7.7641,-7.7658,-7.7713,-7.782,-7.7892,-7.7991,-7.8238,-7.8245,-7.8354,-7.8391,-7.8422,-7.8448,-7.8579,-7.8627,-7.8111,-7.8111,-7.8111,0,0,-7.7321,-7.7353,-7.7434,-7.7563,-7.7602,-7.7729,-7.756,-7.7701,-7.7793,-7.7662,-7.7844,-7.7859,-7.7916,-7.8137,-7.8235,-7.8158,-7.8592,-7.845,-7.8475,-7.8484,-7.8606,-7.8655,-7.8699,-7.8126,-7.8123,-7.8121,0,0,-7.7646,-7.7684,-7.7857,-7.7901,-7.7964,-7.7951,-7.7993,-7.8034,-7.8039,-7.8222,-7.8126,-7.8234,-7.8421,-7.8466,-7.8513,-7.8856,-7.8776,-7.889,-7.9084,-7.9212,-7.9253,-7.9289,-7.941,-7.9454,-7.8917,-7.8917,-7.8918,0,-7.7815,-7.8004,-7.7955,-7.8104,-7.8162,-7.8052,-7.8226,-7.827,-7.8361,-7.8403,-7.8317,-7.8549,-7.858,-7.8809,-7.8893,-7.8935,-7.898,-7.8884,-7.9252,-7.9287,-7.9319,-7.9434,-7.948,-7.893,-7.8929,-7.8928,-7.8926,0,-7.8208,-7.8341,-7.8474,-7.8567,-7.8641,-7.8802,-7.8775,-7.8855,-7.881,-7.8806,-7.8992,-7.9026,-7.913,-7.9181,-7.9138,-7.9405,-7.9355,-7.9262,-7.9106,-7.9383,-7.9489,-7.9533,-7.895,-7.8945,-7.8941,-7.8938,0,0,-7.8653,-7.8719,-7.8768,-7.8809,-7.887,-7.8971,-7.9126,-7.923,-7.9299,-7.9366,-7.9493,-7.9654,-7.9568,-7.9622,-7.9582,-7.9695,-7.9964,-7.9587,-7.9588,-7.9655,-8.0258,-8.0327,-8.0379,-7.9912,-7.992,-7.9926,-8.0253,0,-7.8977,-7.9248,-7.9208,-7.9468,-7.9589,-7.9486,-7.9621,-7.9673,-7.9673,-7.9774,-7.9773,-7.9888,-7.9767,-7.9799,-7.9906,-7.9909,-8.0084,-7.9885,-8.0027,-8.0033,-8.0015,-8.0435,-8.0509,-8.0815,-8.0294,-8.0301,-8.0307,0,-7.939,-7.9475,-7.9748,-7.9791,-7.984,-7.9962,-8.0054,-8.0153,-8.0208,-8.02,-8.0262,-8.0202,-8.0354,-8.0199,-8.0407,-8.0273,-8.0329,-8.0339,-8.035,-8.036,-8.0186,-8.0455,-8.0912,-8.0958,-8.0372,-8.0367,-8.0362,0,-7.9686,-7.9868,-8.0054,-8.0093,-8.0148,-8.0236,-8.0262,-8.0309,-8.0374,-8.0454,-8.0495,-8.0591,-8.0643,-8.0718,-8.0684,-8.0574,-8.0899,-8.074,-8.0895,-8.0896,-8.0967,-8.0963,-8.1438,-8.1006,-8.1006,-8.1005,-8.1004,0,-8.0051,-8.0222,-8.0188,-8.0303,-8.0491,-8.0443,-8.0629,-8.0643,-8.0686,-8.0799,-8.0716,-8.0824,-8.0774,-8.0878,-8.0853,-8.1029,-8.1054,-8.105,-8.1041,-8.1057,-8.1058,-8.1092,-8.1069,-8.1017,-8.1014,-8.1012,-8.101,0,-8.0412,-8.0397,-8.0593,-8.063,-8.0643,-8.078,-8.081,-8.0916,-8.0911,-8.1056,-8.1087,-8.1078,-8.1197,-8.1172,-8.1301,-8.1284,-8.1505,-8.147,-8.1487,-8.1478,-8.1634,-8.1619,-8.2147,-8.2213,-8.174,-8.1745,-8.1748,0,-8.0645,-8.0774,-8.0826,-8.0897,-8.0931,-8.1047,-8.1114,-8.1072,-8.1144,-8.1217,-8.1315,-8.1426,-8.1513,-8.1707,-8.171,-8.1809,-8.1774,-8.1953,-8.1788,-8.1801,-8.1776,-8.1768,-8.178,-8.1985,-8.199,-8.1994,-8.1998,0,-8.106,-8.1047,-8.1147,-8.1246,-8.1328,-8.1403,-8.1469,-8.1532,-8.1495,-8.158,-8.1702,-8.1769,-8.1903,-8.2014,-8.2105,-8.2129,-8.2058,-8.205,-8.2091,-8.2108,-8.2112,-8.211,-8.1574,-8.2038,-8.2034,-8.2031,-8.2029,-8.2027,-8.1363,-8.1473,-8.1527,-8.1641,-8.1688,-8.1752,-8.1854,-8.1863,-8.1964,-8.2071,-8.2039,-8.2177,-8.2228,-8.2344,-8.2379,-8.2485,-8.2418,-8.2477,-8.2492,-8.2507,-8.2526,-8.2097,-8.2501,-8.25,-8.2499,-8.2498,-8.2497,0,-8.1773,-8.1803,-8.1909,-8.2006,-8.2096,-8.2023,-8.2093,-8.2172,-8.2296,-8.2351,-8.2439,-8.2578,-8.2685,-8.2699,-8.28,-8.2882,-8.2851,-8.291,-8.2902,-8.2909,-8.258,-8.2535,-8.2932,-8.2932,-8.2932,-8.2932,-8.2932,-8.2932,-8.1996,-8.2179,-8.2172,-8.2375,-8.2403,-8.254,-8.2586,-8.2644,-8.2687,-8.2848,-8.2938,-8.2946,-8.2984,-8.3087,-8.3182,-8.3183,-8.3223,-8.3294,-8.3283,-8.2975,-8.2932,-8.2891,-8.2847,-8.3304,-8.3304,-8.3602,-8.3604,-8.3607]}]]